GW3788 Weather Reports


Display with metric or nautical units.
time (UTC)temp
F
wind
direction
speed
MPH
gust
MPH
rain 1hr
in
rain 24hr
in
rain mn
in
humidity
%
barometer
mb
20260505022619 75 229 2.0 5.0 0.00 0.00 0.00 54 1009.2
20260505022518 75 253 3.0 5.0 0.00 0.00 0.00 54 1009.2
20260505022419 75 225 3.0 5.0 0.00 0.00 0.00 54 1009.3
20260505022318 75 252 1.0 3.0 0.00 0.00 0.00 53 1009.3
20260505022218 75 259 1.0 3.0 0.00 0.00 0.00 53 1009.3
20260505022119 75 231 0.0 1.0 0.00 0.00 0.00 53 1009.3
20260505022019 75 244 1.0 2.0 0.00 0.00 0.00 53 1009.3
20260505021619 76 225 3.0 5.0 0.00 0.00 0.00 53 1009.3
20260505021519 76 222 1.0 2.0 0.00 0.00 0.00 53 1009.3
20260505021418 76 278 1.0 3.0 0.00 0.00 0.00 53 1009.3
20260505021319 76 8 1.0 2.0 0.00 0.00 0.00 53 1009.3
20260505021219 76 349 1.0 3.0 0.00 0.00 0.00 52 1009.3
20260505021119 76 265 1.0 2.0 0.00 0.00 0.00 52 1009.3
20260505020819 76 248 1.0 3.0 0.00 0.00 0.00 52 1009.3
20260505020719 76 281 1.0 2.0 0.00 0.00 0.00 51 1009.3
20260505020619 77 246 3.0 5.0 0.00 0.00 0.00 51 1009.3
20260505020419 77 206 1.0 3.0 0.00 0.00 0.00 50 1009.3
20260505020319 77 0 1.0 2.0 0.00 0.00 0.00 50 1009.3
20260505020219 77 0 0.0 1.0 0.00 0.00 0.00 50 1009.3
20260505020119 77 237 0.0 2.0 0.00 0.00 0.00 49 1009.3
20260505020019 77 0 0.0 0.0 0.00 0.00 0.00 49 1009.3
20260505015919 77 0 0.0 2.0 0.00 0.00 0.00 49 1009.3
20260505015819 77 219 2.0 4.0 0.00 0.00 0.00 49 1009.3
20260505015720 77 233 3.0 6.0 0.00 0.00 0.00 49 1009.3
20260505015620 77 233 3.0 4.0 0.00 0.00 0.00 48 1009.3
20260505015519 77 246 4.0 8.0 0.00 0.00 0.00 48 1009.3
20260505015419 77 216 1.0 4.0 0.00 0.00 0.00 47 1009.3
20260505014919 77 223 2.0 5.0 0.00 0.00 0.00 47 1009.2
20260505014820 78 281 2.0 4.0 0.00 0.00 0.00 47 1009.2
20260505014720 78 179 2.0 3.0 0.00 0.00 0.00 46 1009.2
20260505014619 78 0 2.0 4.0 0.00 0.00 0.00 46 1009.2
20260505014319 78 254 3.0 6.0 0.00 0.00 0.00 46 1009.2
20260505014219 78 0 0.0 2.0 0.00 0.00 0.00 46 1009.2
20260505014120 78 236 2.0 3.0 0.00 0.00 0.00 46 1009.2
20260505013719 78 213 2.0 3.0 0.00 0.00 0.00 46 1009.2
20260505013619 78 0 1.0 3.0 0.00 0.00 0.00 46 1009.2
20260505013519 78 269 1.0 3.0 0.00 0.00 0.00 46 1009.2
20260505013420 79 340 2.0 4.0 0.00 0.00 0.00 46 1009.3
20260505013320 79 232 3.0 4.0 0.00 0.00 0.00 46 1009.2
20260505013220 79 210 3.0 4.0 0.00 0.00 0.00 45 1009.3
20260505013020 79 215 3.0 4.0 0.00 0.00 0.00 45 1009.3
20260505012920 79 222 2.0 3.0 0.00 0.00 0.00 45 1009.2
20260505012620 79 280 1.0 3.0 0.00 0.00 0.00 44 1009.2
20260505012320 79 285 0.0 1.0 0.00 0.00 0.00 43 1009.2
20260505012220 79 0 0.0 0.0 0.00 0.00 0.00 43 1009.2
20260505012120 79 0 0.0 1.0 0.00 0.00 0.00 43 1009.2
20260505011820 79 0 1.0 2.0 0.00 0.00 0.00 43 1009.2
20260505011720 79 263 2.0 3.0 0.00 0.00 0.00 43 1009.2
20260505011620 79 215 3.0 5.0 0.00 0.00 0.00 43 1009.2
20260505011520 79 203 3.0 5.0 0.00 0.00 0.00 42 1009.2
20260505011420 79 211 3.0 5.0 0.00 0.00 0.00 41 1009.2
20260505011320 79 228 0.0 1.0 0.00 0.00 0.00 41 1009.2
20260505011220 79 0 0.0 1.0 0.00 0.00 0.00 41 1009.3
20260505011120 79 0 0.0 2.0 0.00 0.00 0.00 41 1009.3
20260505011019 80 288 2.0 4.0 0.00 0.00 0.00 40 1009.3
20260505010920 80 212 1.0 3.0 0.00 0.00 0.00 40 1009.3
20260505010820 80 227 2.0 5.0 0.00 0.00 0.00 39 1009.3
20260505010420 80 302 1.0 2.0 0.00 0.00 0.00 38 1009.3
20260505010320 80 339 0.0 1.0 0.00 0.00 0.00 38 1009.3
20260505010220 80 0 0.0 3.0 0.00 0.00 0.00 38 1009.3
20260505010120 80 226 1.0 3.0 0.00 0.00 0.00 38 1009.3
20260505010020 80 291 2.0 4.0 0.00 0.00 0.00 38 1009.3
20260505005920 80 0 1.0 3.0 0.00 0.00 0.00 37 1009.3
20260505005820 80 211 1.0 3.0 0.00 0.00 0.00 37 1009.3
20260505005720 79 350 1.0 4.0 0.00 0.00 0.00 38 1009.4
20260505005620 79 250 0.0 1.0 0.00 0.00 0.00 38 1009.3
20260505005520 79 305 1.0 2.0 0.00 0.00 0.00 38 1009.3
20260505005420 79 328 1.0 3.0 0.00 0.00 0.00 37 1009.4
20260505005320 79 212 2.0 5.0 0.00 0.00 0.00 37 1009.3
20260505005220 79 218 4.0 6.0 0.00 0.00 0.00 37 1009.3
20260505005120 79 216 1.0 4.0 0.00 0.00 0.00 37 1009.3
20260505005020 79 0 0.0 2.0 0.00 0.00 0.00 36 1009.3
20260505004920 79 233 2.0 4.0 0.00 0.00 0.00 36 1009.3
20260505004821 80 246 3.0 5.0 0.00 0.00 0.00 36 1009.3
20260505004721 80 207 3.0 5.0 0.00 0.00 0.00 36 1009.3
20260505004621 79 241 1.0 3.0 0.00 0.00 0.00 36 1009.3
20260505004520 79 316 1.0 3.0 0.00 0.00 0.00 36 1009.3
20260505004420 79 330 1.0 3.0 0.00 0.00 0.00 36 1009.3
20260505004320 79 352 2.0 5.0 0.00 0.00 0.00 36 1009.3
20260505004220 79 338 1.0 3.0 0.00 0.00 0.00 36 1009.3
20260505004120 79 301 1.0 3.0 0.00 0.00 0.00 36 1009.3
20260505004020 79 281 2.0 3.0 0.00 0.00 0.00 35 1009.3
20260505003920 79 347 1.0 4.0 0.00 0.00 0.00 36 1009.3
20260505003820 79 6 0.0 3.0 0.00 0.00 0.00 36 1009.3
20260505003521 79 314 0.0 2.0 0.00 0.00 0.00 36 1009.3
20260505003420 79 0 1.0 3.0 0.00 0.00 0.00 36 1009.3
20260505003321 79 316 2.0 6.0 0.00 0.00 0.00 37 1009.4
20260505003220 79 310 1.0 3.0 0.00 0.00 0.00 36 1009.3
20260505003120 79 0 1.0 2.0 0.00 0.00 0.00 36 1009.3
20260505003021 79 226 1.0 3.0 0.00 0.00 0.00 36 1009.3
20260505002721 79 352 2.0 5.0 0.00 0.00 0.00 37 1009.3
20260505002621 79 218 1.0 3.0 0.00 0.00 0.00 37 1009.2
20260505002521 79 356 2.0 3.0 0.00 0.00 0.00 37 1009.3
20260505002421 79 191 2.0 4.0 0.00 0.00 0.00 37 1009.3
20260505002320 79 210 2.0 4.0 0.00 0.00 0.00 37 1009.3
20260505002221 79 250 2.0 4.0 0.00 0.00 0.00 37 1009.2
20260505002120 79 199 1.0 3.0 0.00 0.00 0.00 37 1009.2
20260505001821 79 202 4.0 6.0 0.00 0.00 0.00 36 1009.2
20260505001521 79 206 2.0 4.0 0.00 0.00 0.00 36 1009.2
20260505001421 79 212 1.0 4.0 0.00 0.00 0.00 35 1009.2
20260505001321 79 313 1.0 4.0 0.00 0.00 0.00 35 1009.3
20260505001221 79 312 1.0 3.0 0.00 0.00 0.00 35 1009.2
20260505001121 79 322 1.0 3.0 0.00 0.00 0.00 35 1009.3
20260505000921 79 242 1.0 3.0 0.00 0.00 0.00 35 1009.2
20260505000821 79 9 2.0 4.0 0.00 0.00 0.00 35 1009.3
20260505000721 79 58 1.0 2.0 0.00 0.00 0.00 35 1009.3
20260505000621 79 0 1.0 2.0 0.00 0.00 0.00 35 1009.2
20260505000521 79 340 2.0 4.0 0.00 0.00 0.00 35 1009.2
20260505000421 79 253 3.0 5.0 0.00 0.00 0.00 35 1009.2
20260505000321 79 322 2.0 5.0 0.00 0.00 0.00 35 1009.3
20260505000222 79 227 3.0 6.0 0.00 0.00 0.00 35 1009.3
20260505000121 79 236 4.0 6.0 0.00 0.00 0.00 35 1009.3
20260505000021 79 0 0.0 2.0 0.00 0.00 0.00 36 1009.3
20260504235921 79 203 3.0 4.0 0.00 0.00 0.00 35 1009.3
20260504235821 79 218 0.0 3.0 0.00 0.00 0.00 35 1009.3
20260504235721 79 352 2.0 4.0 0.00 0.00 0.00 36 1009.4
20260504235621 79 236 1.0 4.0 0.00 0.00 0.00 36 1009.4
20260504235521 79 240 1.0 3.0 0.00 0.00 0.00 36 1009.4
20260504235421 79 251 3.0 6.0 0.00 0.00 0.00 36 1009.4
20260504235321 79 219 4.0 6.0 0.00 0.00 0.00 35 1009.3
20260504235221 79 184 1.0 4.0 0.00 0.00 0.00 36 1009.3
20260504234922 79 211 4.0 6.0 0.00 0.00 0.00 35 1009.3
20260504234822 79 217 3.0 5.0 0.00 0.00 0.00 35 1009.3
20260504234721 79 199 3.0 4.0 0.00 0.00 0.00 35 1009.3
20260504234622 79 216 2.0 4.0 0.00 0.00 0.00 35 1009.3
20260504234521 79 200 3.0 7.0 0.00 0.00 0.00 35 1009.3
20260504234221 79 215 1.0 3.0 0.00 0.00 0.00 36 1009.4
20260504234122 79 298 1.0 3.0 0.00 0.00 0.00 37 1009.4
20260504234021 79 337 2.0 4.0 0.00 0.00 0.00 37 1009.4
20260504233922 79 318 1.0 3.0 0.00 0.00 0.00 36 1009.4
20260504233621 79 0 1.0 4.0 0.00 0.00 0.00 36 1009.4
20260504233522 79 273 2.0 4.0 0.00 0.00 0.00 37 1009.4
20260504233422 79 225 0.0 3.0 0.00 0.00 0.00 37 1009.4
20260504233322 79 212 1.0 3.0 0.00 0.00 0.00 36 1009.4
20260504233222 79 203 2.0 6.0 0.00 0.00 0.00 36 1009.3
20260504233122 79 0 0.0 2.0 0.00 0.00 0.00 37 1009.4
20260504233021 79 305 1.0 3.0 0.00 0.00 0.00 36 1009.4
20260504232922 79 310 2.0 4.0 0.00 0.00 0.00 37 1009.4
20260504232824 79 263 1.0 2.0 0.00 0.00 0.00 36 1009.3
20260504232721 79 214 1.0 3.0 0.00 0.00 0.00 35 1009.3
20260504232621 79 252 3.0 5.0 0.00 0.00 0.00 35 1009.3
20260504232522 79 338 2.0 4.0 0.00 0.00 0.00 35 1009.3
20260504232221 79 0 2.0 3.0 0.00 0.00 0.00 36 1009.3
20260504232122 79 311 1.0 3.0 0.00 0.00 0.00 36 1009.4
20260504231922 79 326 2.0 3.0 0.00 0.00 0.00 36 1009.4
20260504231822 79 254 1.0 3.0 0.00 0.00 0.00 36 1009.3
20260504231722 79 326 1.0 2.0 0.00 0.00 0.00 36 1009.3
20260504231622 79 271 2.0 4.0 0.00 0.00 0.00 36 1009.4
20260504231522 79 308 2.0 3.0 0.00 0.00 0.00 36 1009.4
20260504231421 79 250 4.0 7.0 0.00 0.00 0.00 36 1009.3
20260504231322 79 229 3.0 5.0 0.00 0.00 0.00 36 1009.3
20260504231222 79 216 4.0 6.0 0.00 0.00 0.00 36 1009.3
20260504231022 79 218 2.0 5.0 0.00 0.00 0.00 36 1009.4
20260504230922 79 281 3.0 5.0 0.00 0.00 0.00 36 1009.4
20260504230822 79 359 0.0 1.0 0.00 0.00 0.00 35 1009.4
20260504230723 79 317 2.0 4.0 0.00 0.00 0.00 35 1009.4
20260504230622 79 238 3.0 4.0 0.00 0.00 0.00 35 1009.4
20260504230522 79 302 1.0 3.0 0.00 0.00 0.00 37 1009.5
20260504230422 79 299 1.0 3.0 0.00 0.00 0.00 36 1009.4
20260504230322 79 265 2.0 4.0 0.00 0.00 0.00 36 1009.5
20260504230222 79 233 3.0 6.0 0.00 0.00 0.00 36 1009.5
20260504230122 79 224 1.0 3.0 0.00 0.00 0.00 37 1009.5
20260504230022 79 284 2.0 3.0 0.00 0.00 0.00 36 1009.5
20260504225922 79 0 0.0 0.0 0.00 0.00 0.00 37 1009.5
20260504225822 79 73 1.0 2.0 0.00 0.00 0.00 36 1009.5
20260504225722 79 306 1.0 4.0 0.00 0.00 0.00 37 1009.6
20260504225222 78 0 2.0 4.0 0.00 0.00 0.00 38 1009.6
20260504225122 78 47 0.0 1.0 0.00 0.00 0.00 38 1009.6
20260504225022 78 0 0.0 1.0 0.00 0.00 0.00 37 1009.6
20260504224922 78 0 0.0 2.0 0.00 0.00 0.00 37 1009.6
20260504224823 78 260 1.0 2.0 0.00 0.00 0.00 36 1009.6
20260504224523 79 219 2.0 3.0 0.00 0.00 0.00 38 1009.7
20260504224423 79 220 3.0 5.0 0.00 0.00 0.00 38 1009.7
20260504224323 79 233 3.0 4.0 0.00 0.00 0.00 39 1009.7
20260504224223 79 238 3.0 5.0 0.00 0.00 0.00 39 1009.7
20260504224122 78 259 3.0 6.0 0.00 0.00 0.00 39 1009.8
20260504224023 78 257 2.0 3.0 0.00 0.00 0.00 39 1009.7
20260504223923 78 43 2.0 6.0 0.00 0.00 0.00 39 1009.7
20260504223823 78 352 0.0 2.0 0.00 0.00 0.00 40 1009.8
20260504223523 78 209 3.0 5.0 0.00 0.00 0.00 39 1009.7
20260504223423 78 223 2.0 4.0 0.00 0.00 0.00 39 1009.8
20260504223323 78 269 2.0 3.0 0.00 0.00 0.00 39 1009.8
20260504223223 78 225 2.0 4.0 0.00 0.00 0.00 39 1009.8
20260504223123 78 252 2.0 4.0 0.00 0.00 0.00 39 1009.8
20260504223023 78 271 2.0 5.0 0.00 0.00 0.00 39 1009.8
20260504222923 78 220 4.0 8.0 0.00 0.00 0.00 39 1009.8
20260504222823 78 226 2.0 5.0 0.00 0.00 0.00 40 1009.8
20260504222723 78 227 1.0 3.0 0.00 0.00 0.00 40 1009.8
20260504222622 78 0 1.0 3.0 0.00 0.00 0.00 40 1009.8
20260504222523 78 60 2.0 5.0 0.00 0.00 0.00 40 1009.8
20260504222423 78 263 3.0 5.0 0.00 0.00 0.00 40 1009.9
20260504222323 78 186 1.0 2.0 0.00 0.00 0.00 41 1009.8
20260504222023 78 224 5.0 7.0 0.00 0.00 0.00 41 1009.9
20260504221923 78 212 1.0 4.0 0.00 0.00 0.00 42 1009.9
20260504221823 78 276 0.0 2.0 0.00 0.00 0.00 41 1009.9
20260504221723 78 252 2.0 3.0 0.00 0.00 0.00 42 1009.9
20260504221623 78 231 0.0 2.0 0.00 0.00 0.00 42 1010.0
20260504221523 78 296 1.0 4.0 0.00 0.00 0.00 42 1010.0
20260504221423 78 238 0.0 2.0 0.00 0.00 0.00 42 1010.0
20260504221322 78 278 1.0 3.0 0.00 0.00 0.00 42 1010.0
20260504221223 78 0 1.0 2.0 0.00 0.00 0.00 42 1010.0
20260504221123 78 233 2.0 4.0 0.00 0.00 0.00 42 1010.0
20260504220923 78 0 1.0 3.0 0.00 0.00 0.00 42 1010.0
20260504220823 78 17 1.0 3.0 0.00 0.00 0.00 43 1010.0
20260504220723 78 300 1.0 2.0 0.00 0.00 0.00 44 1010.1
20260504220523 78 0 0.0 3.0 0.00 0.00 0.00 43 1010.0
20260504220423 78 278 1.0 3.0 0.00 0.00 0.00 43 1010.1
20260504220323 78 286 1.0 3.0 0.00 0.00 0.00 43 1010.1
20260504220123 78 268 1.0 3.0 0.00 0.00 0.00 43 1010.1
20260504220023 78 225 3.0 7.0 0.00 0.00 0.00 42 1010.0
20260504215923 78 53 2.0 5.0 0.00 0.00 0.00 42 1010.0
20260504215823 78 8 2.0 5.0 0.00 0.00 0.00 42 1010.1
20260504215723 78 229 2.0 4.0 0.00 0.00 0.00 44 1010.1
20260504215423 78 280 1.0 2.0 0.00 0.00 0.00 41 1010.0
20260504215324 78 226 1.0 3.0 0.00 0.00 0.00 41 1010.0
20260504215224 78 275 3.0 6.0 0.00 0.00 0.00 40 1010.0
20260504215123 78 217 5.0 6.0 0.00 0.00 0.00 40 1010.0
20260504214824 78 224 2.0 4.0 0.00 0.00 0.00 40 1010.1
20260504214724 78 209 3.0 5.0 0.00 0.00 0.00 41 1010.0
20260504214424 78 225 3.0 6.0 0.00 0.00 0.00 41 1010.1
20260504214324 78 236 3.0 7.0 0.00 0.00 0.00 40 1010.1
20260504214224 78 231 4.0 5.0 0.00 0.00 0.00 40 1010.1
20260504214124 78 220 2.0 5.0 0.00 0.00 0.00 40 1010.1
20260504214024 78 227 3.0 4.0 0.00 0.00 0.00 40 1010.1
20260504213924 78 237 2.0 5.0 0.00 0.00 0.00 40 1010.1
20260504213724 78 333 1.0 4.0 0.00 0.00 0.00 40 1010.0
20260504213524 78 211 2.0 6.0 0.00 0.00 0.00 41 1010.1
20260504213423 78 266 1.0 2.0 0.00 0.00 0.00 41 1010.1
20260504213323 78 254 4.0 7.0 0.00 0.00 0.00 40 1010.1
20260504213224 78 204 4.0 7.0 0.00 0.00 0.00 40 1010.1
20260504212924 78 239 1.0 2.0 0.00 0.00 0.00 40 1010.1
20260504212624 77 224 2.0 5.0 0.00 0.00 0.00 41 1010.1
20260504212524 77 226 3.0 6.0 0.00 0.00 0.00 40 1010.1
20260504212424 77 216 3.0 5.0 0.00 0.00 0.00 40 1010.1
20260504212324 77 222 3.0 4.0 0.00 0.00 0.00 41 1010.2
20260504212224 77 212 1.0 2.0 0.00 0.00 0.00 41 1010.2
20260504212124 77 245 3.0 6.0 0.00 0.00 0.00 40 1010.2
20260504212024 77 228 3.0 5.0 0.00 0.00 0.00 41 1010.1
20260504211924 77 285 1.0 4.0 0.00 0.00 0.00 40 1010.1
20260504211524 77 216 4.0 6.0 0.00 0.00 0.00 41 1010.1
20260504211424 77 232 3.0 5.0 0.00 0.00 0.00 41 1010.1
20260504211327 77 218 2.0 4.0 0.00 0.00 0.00 41 1010.1
20260504210924 77 224 4.0 6.0 0.00 0.00 0.00 41 1010.2
20260504210724 77 180 3.0 6.0 0.00 0.00 0.00 41 1010.2
20260504210624 77 201 4.0 6.0 0.00 0.00 0.00 41 1010.1
20260504210124 77 262 2.0 3.0 0.00 0.00 0.00 41 1010.2
20260504205824 77 204 4.0 6.0 0.00 0.00 0.00 41 1010.2
20260504205724 77 220 2.0 5.0 0.00 0.00 0.00 41 1010.2
20260504205625 77 216 3.0 6.0 0.00 0.00 0.00 41 1010.2
20260504205524 77 291 4.0 5.0 0.00 0.00 0.00 41 1010.2
20260504205424 77 261 2.0 3.0 0.00 0.00 0.00 41 1010.3
20260504205324 77 300 2.0 3.0 0.00 0.00 0.00 41 1010.3
20260504205224 77 14 1.0 2.0 0.00 0.00 0.00 42 1010.3
20260504205124 77 0 0.0 1.0 0.00 0.00 0.00 42 1010.3
20260504205024 76 236 2.0 3.0 0.00 0.00 0.00 42 1010.3
20260504204925 76 324 1.0 3.0 0.00 0.00 0.00 42 1010.3
20260504204824 76 288 1.0 3.0 0.00 0.00 0.00 42 1010.3
20260504204724 76 321 0.0 2.0 0.00 0.00 0.00 43 1010.3
20260504204624 76 0 1.0 2.0 0.00 0.00 0.00 43 1010.3
20260504204525 76 253 2.0 4.0 0.00 0.00 0.00 42 1010.3
20260504204424 76 205 3.0 5.0 0.00 0.00 0.00 42 1010.3
20260504204325 76 223 4.0 6.0 0.00 0.00 0.00 42 1010.3
20260504204225 76 210 4.0 7.0 0.00 0.00 0.00 42 1010.3
20260504204125 76 215 1.0 4.0 0.00 0.00 0.00 43 1010.3
20260504204024 76 263 1.0 3.0 0.00 0.00 0.00 43 1010.3
20260504203724 76 228 1.0 3.0 0.00 0.00 0.00 43 1010.3
20260504203625 76 218 3.0 5.0 0.00 0.00 0.00 43 1010.3
20260504203325 76 218 3.0 4.0 0.00 0.00 0.00 43 1010.3
20260504203225 76 246 3.0 7.0 0.00 0.00 0.00 43 1010.3
20260504203125 76 275 3.0 4.0 0.00 0.00 0.00 44 1010.3
20260504203024 76 269 1.0 3.0 0.00 0.00 0.00 45 1010.3
20260504202525 76 219 0.0 2.0 0.00 0.00 0.00 44 1010.3
20260504202424 76 292 2.0 4.0 0.00 0.00 0.00 44 1010.3
20260504202325 76 283 3.0 4.0 0.00 0.00 0.00 43 1010.3
20260504202225 76 274 3.0 5.0 0.00 0.00 0.00 43 1010.3
20260504201925 76 217 3.0 4.0 0.00 0.00 0.00 44 1010.2
20260504201825 76 223 2.0 3.0 0.00 0.00 0.00 44 1010.2
20260504201425 75 0 0.0 1.0 0.00 0.00 0.00 43 1010.3
20260504201325 75 321 1.0 2.0 0.00 0.00 0.00 43 1010.3
20260504201225 75 302 3.0 5.0 0.00 0.00 0.00 43 1010.3
20260504201125 75 257 3.0 7.0 0.00 0.00 0.00 43 1010.3
20260504201025 75 73 3.0 4.0 0.00 0.00 0.00 43 1010.3
20260504200725 75 221 3.0 5.0 0.00 0.00 0.00 42 1010.4
20260504200627 75 220 4.0 6.0 0.00 0.00 0.00 42 1010.4
20260504200526 75 211 5.0 8.0 0.00 0.00 0.00 42 1010.3
20260504200426 75 213 4.0 5.0 0.00 0.00 0.00 42 1010.3
20260504200325 75 220 2.0 7.0 0.00 0.00 0.00 42 1010.4
20260504200225 75 201 4.0 7.0 0.00 0.00 0.00 43 1010.4
20260504200125 75 210 3.0 5.0 0.00 0.00 0.00 42 1010.4
20260504195825 75 205 3.0 5.0 0.00 0.00 0.00 43 1010.5
20260504195725 75 208 2.0 5.0 0.00 0.00 0.00 43 1010.5
20260504195625 75 245 3.0 5.0 0.00 0.00 0.00 43 1010.5
20260504195425 75 0 1.0 4.0 0.00 0.00 0.00 42 1010.5
20260504195326 75 224 3.0 5.0 0.00 0.00 0.00 42 1010.5
20260504195225 75 228 1.0 3.0 0.00 0.00 0.00 43 1010.5
20260504195125 75 0 0.0 2.0 0.00 0.00 0.00 44 1010.5
20260504195025 75 0 1.0 4.0 0.00 0.00 0.00 43 1010.5
20260504194925 75 220 2.0 4.0 0.00 0.00 0.00 43 1010.5
20260504194825 75 0 1.0 4.0 0.00 0.00 0.00 43 1010.5
20260504194725 75 207 1.0 4.0 0.00 0.00 0.00 43 1010.5
20260504194225 75 215 1.0 2.0 0.00 0.00 0.00 43 1010.5
20260504194126 75 297 2.0 3.0 0.00 0.00 0.00 44 1010.6
20260504194025 75 230 3.0 6.0 0.00 0.00 0.00 44 1010.6
20260504193926 75 270 4.0 7.0 0.00 0.00 0.00 43 1010.6
20260504193726 75 273 1.0 4.0 0.00 0.00 0.00 44 1010.6
20260504193625 75 302 1.0 2.0 0.00 0.00 0.00 43 1010.6
20260504193526 75 341 1.0 4.0 0.00 0.00 0.00 44 1010.6
20260504193425 75 281 0.0 1.0 0.00 0.00 0.00 43 1010.6
20260504193325 74 0 1.0 2.0 0.00 0.00 0.00 44 1010.6
20260504193228 74 332 0.0 2.0 0.00 0.00 0.00 44 1010.6
20260504193125 74 77 3.0 7.0 0.00 0.00 0.00 45 1010.6
20260504193026 74 77 3.0 6.0 0.00 0.00 0.00 44 1010.6
20260504192926 74 113 0.0 3.0 0.00 0.00 0.00 44 1010.6
20260504192825 74 0 0.0 2.0 0.00 0.00 0.00 44 1010.6
20260504192726 74 259 1.0 2.0 0.00 0.00 0.00 44 1010.7
20260504192426 74 322 1.0 3.0 0.00 0.00 0.00 44 1010.7
20260504192326 74 275 1.0 2.0 0.00 0.00 0.00 44 1010.7
20260504192225 74 232 1.0 3.0 0.00 0.00 0.00 44 1010.7
20260504192126 74 285 0.0 3.0 0.00 0.00 0.00 44 1010.7
20260504192025 74 236 2.0 3.0 0.00 0.00 0.00 44 1010.7
20260504191926 75 310 2.0 3.0 0.00 0.00 0.00 44 1010.7
20260504191826 75 274 3.0 5.0 0.00 0.00 0.00 44 1010.7
20260504191726 75 217 4.0 6.0 0.00 0.00 0.00 44 1010.7
20260504191626 75 0 2.0 4.0 0.00 0.00 0.00 44 1010.7
20260504191526 75 220 0.0 4.0 0.00 0.00 0.00 44 1010.7
20260504191426 75 217 0.0 2.0 0.00 0.00 0.00 44 1010.7
20260504191326 75 223 2.0 5.0 0.00 0.00 0.00 44 1010.7
20260504191226 75 0 0.0 0.0 0.00 0.00 0.00 45 1010.7
20260504191126 75 0 1.0 4.0 0.00 0.00 0.00 45 1010.7
20260504191025 75 0 1.0 3.0 0.00 0.00 0.00 45 1010.7
20260504190926 75 219 3.0 5.0 0.00 0.00 0.00 44 1010.7
20260504190526 74 32 2.0 6.0 0.00 0.00 0.00 44 1010.7
20260504190426 74 0 0.0 2.0 0.00 0.00 0.00 44 1010.7
20260504190126 74 0 0.0 2.0 0.00 0.00 0.00 44 1010.7
20260504190026 73 80 3.0 6.0 0.00 0.00 0.00 44 1010.7
20260504185926 73 113 1.0 4.0 0.00 0.00 0.00 44 1010.7
20260504185826 73 36 2.0 3.0 0.00 0.00 0.00 44 1010.7
20260504185727 73 330 2.0 4.0 0.00 0.00 0.00 44 1010.8
20260504185626 73 0 1.0 3.0 0.00 0.00 0.00 44 1010.8
20260504185526 73 241 2.0 4.0 0.00 0.00 0.00 44 1010.8
20260504185326 73 0 0.0 1.0 0.00 0.00 0.00 43 1010.8
20260504185228 73 0 1.0 4.0 0.00 0.00 0.00 43 1010.8
20260504185127 73 253 1.0 3.0 0.00 0.00 0.00 43 1010.8
20260504184826 73 261 2.0 4.0 0.00 0.00 0.00 44 1010.8
20260504184727 73 208 4.0 5.0 0.00 0.00 0.00 44 1010.8
20260504184627 73 201 2.0 5.0 0.00 0.00 0.00 45 1010.8
20260504184526 73 219 2.0 5.0 0.00 0.00 0.00 45 1010.8
20260504184427 73 212 4.0 6.0 0.00 0.00 0.00 45 1010.8
20260504184327 73 209 4.0 6.0 0.00 0.00 0.00 44 1010.8
20260504184227 73 217 2.0 4.0 0.00 0.00 0.00 45 1010.8
20260504183927 72 0 0.0 0.0 0.00 0.00 0.00 46 1010.9
20260504183826 72 0 0.0 1.0 0.00 0.00 0.00 46 1010.9
20260504183727 72 288 1.0 2.0 0.00 0.00 0.00 46 1010.9
20260504183627 72 5 1.0 2.0 0.00 0.00 0.00 46 1010.9
20260504183327 72 225 2.0 4.0 0.00 0.00 0.00 44 1010.9
20260504183227 72 215 3.0 3.0 0.00 0.00 0.00 43 1011.0
20260504183126 72 217 3.0 4.0 0.00 0.00 0.00 43 1011.0
20260504183027 72 209 2.0 3.0 0.00 0.00 0.00 44 1011.0
20260504182927 72 0 1.0 3.0 0.00 0.00 0.00 45 1011.0
20260504182827 72 293 1.0 4.0 0.00 0.00 0.00 45 1011.0
20260504182726 72 0 1.0 3.0 0.00 0.00 0.00 45 1011.0
20260504182627 72 225 4.0 5.0 0.00 0.00 0.00 45 1011.0
20260504182527 72 217 4.0 6.0 0.00 0.00 0.00 45 1011.0
20260504182427 72 212 2.0 4.0 0.00 0.00 0.00 45 1011.0
20260504182327 72 210 2.0 4.0 0.00 0.00 0.00 44 1011.0
20260504182227 72 250 4.0 7.0 0.00 0.00 0.00 44 1011.0
20260504182127 72 203 2.0 5.0 0.00 0.00 0.00 44 1011.0
20260504182027 72 212 2.0 4.0 0.00 0.00 0.00 44 1011.0
20260504181927 72 220 1.0 2.0 0.00 0.00 0.00 44 1011.0
20260504181826 72 290 2.0 3.0 0.00 0.00 0.00 44 1011.0
20260504181727 72 243 1.0 3.0 0.00 0.00 0.00 45 1011.0
20260504181627 72 0 0.0 2.0 0.00 0.00 0.00 46 1011.0
20260504181527 71 328 1.0 2.0 0.00 0.00 0.00 47 1011.1
20260504181427 71 294 2.0 3.0 0.00 0.00 0.00 48 1011.1
20260504181128 71 219 3.0 4.0 0.00 0.00 0.00 48 1011.1
20260504181027 71 199 3.0 4.0 0.00 0.00 0.00 48 1011.1
20260504180927 71 235 3.0 5.0 0.00 0.00 0.00 48 1011.1
20260504180827 71 215 1.0 4.0 0.00 0.00 0.00 48 1011.1
20260504180728 71 317 3.0 5.0 0.00 0.00 0.00 47 1011.1
20260504180627 71 209 2.0 5.0 0.00 0.00 0.00 49 1011.1
20260504180127 71 0 1.0 3.0 0.00 0.00 0.00 49 1011.0
20260504175827 71 221 2.0 4.0 0.00 0.00 0.00 50 1011.0
20260504175728 71 202 4.0 5.0 0.00 0.00 0.00 49 1011.0
20260504175628 71 194 3.0 4.0 0.00 0.00 0.00 48 1011.0
20260504175528 71 225 1.0 2.0 0.00 0.00 0.00 47 1011.0
20260504175427 71 211 2.0 4.0 0.00 0.00 0.00 48 1011.0
20260504175328 71 223 2.0 3.0 0.00 0.00 0.00 48 1011.0
20260504175228 71 210 3.0 5.0 0.00 0.00 0.00 48 1011.0
20260504175130 71 207 2.0 5.0 0.00 0.00 0.00 49 1011.0
20260504175029 71 260 1.0 2.0 0.00 0.00 0.00 48 1011.0
20260504174827 70 205 2.0 4.0 0.00 0.00 0.00 49 1011.0
20260504174727 70 0 0.0 2.0 0.00 0.00 0.00 50 1011.0
20260504174627 70 269 1.0 3.0 0.00 0.00 0.00 50 1011.0
20260504174527 70 274 1.0 2.0 0.00 0.00 0.00 49 1011.0
20260504174428 70 223 3.0 4.0 0.00 0.00 0.00 49 1011.0
20260504174328 70 207 2.0 4.0 0.00 0.00 0.00 49 1011.0
20260504174228 70 215 1.0 2.0 0.00 0.00 0.00 49 1011.0
20260504173928 70 218 1.0 3.0 0.00 0.00 0.00 48 1011.0
20260504173828 70 276 1.0 2.0 0.00 0.00 0.00 48 1011.0
20260504173727 70 254 2.0 2.0 0.00 0.00 0.00 48 1011.0
20260504173628 70 223 2.0 4.0 0.00 0.00 0.00 48 1011.0
20260504173528 70 208 3.0 4.0 0.00 0.00 0.00 47 1011.0
20260504173428 70 212 4.0 6.0 0.00 0.00 0.00 47 1011.0
20260504173227 70 270 2.0 4.0 0.00 0.00 0.00 46 1011.0
20260504173128 70 207 2.0 4.0 0.00 0.00 0.00 47 1011.0
20260504172828 70 215 1.0 2.0 0.00 0.00 0.00 47 1011.0
20260504172728 70 214 1.0 3.0 0.00 0.00 0.00 47 1011.0
20260504172527 69 115 1.0 4.0 0.00 0.00 0.00 49 1011.0
20260504172428 69 64 2.0 5.0 0.00 0.00 0.00 49 1011.0
20260504172328 69 0 0.0 1.0 0.00 0.00 0.00 47 1011.0
20260504172227 69 208 1.0 3.0 0.00 0.00 0.00 47 1011.0
20260504172128 69 218 2.0 3.0 0.00 0.00 0.00 47 1011.0
20260504172028 69 203 1.0 3.0 0.00 0.00 0.00 47 1011.0
20260504171728 69 214 3.0 4.0 0.00 0.00 0.00 47 1011.0
20260504171430 69 205 1.0 2.0 0.00 0.00 0.00 47 1011.0
20260504171128 69 220 2.0 4.0 0.00 0.00 0.00 47 1011.0
20260504171028 69 0 0.0 1.0 0.00 0.00 0.00 48 1011.0
20260504170928 69 209 1.0 2.0 0.00 0.00 0.00 47 1011.0
20260504170828 69 0 0.0 0.0 0.00 0.00 0.00 48 1011.0
20260504170528 69 0 1.0 2.0 0.00 0.00 0.00 48 1011.0
20260504170428 69 212 2.0 3.0 0.00 0.00 0.00 48 1011.0
20260504170328 69 212 3.0 4.0 0.00 0.00 0.00 47 1011.0
20260504170228 69 206 2.0 2.0 0.00 0.00 0.00 48 1011.0
20260504170128 69 213 0.0 1.0 0.00 0.00 0.00 48 1011.0
20260504160429 67 222 2.0 3.0 0.00 0.00 0.00 49 1010.8
20260504160329 67 210 1.0 3.0 0.00 0.00 0.00 51 1010.8
20260504160230 67 0 0.0 1.0 0.00 0.00 0.00 51 1010.8
20260504160129 67 253 1.0 1.0 0.00 0.00 0.00 51 1010.8
20260504151130 64 0 0.0 2.0 0.00 0.00 0.00 58 1010.6
20260504150830 64 48 0.0 2.0 0.00 0.00 0.00 59 1010.6
20260504150730 64 63 0.0 2.0 0.00 0.00 0.00 59 1010.6
20260504150631 64 93 0.0 1.0 0.00 0.00 0.00 59 1010.6
20260504150530 63 93 0.0 1.0 0.00 0.00 0.00 59 1010.6
20260504150430 63 110 0.0 2.0 0.00 0.00 0.00 58 1010.6
20260504150330 63 58 1.0 2.0 0.00 0.00 0.00 59 1010.6
20260504150230 63 0 0.0 1.0 0.00 0.00 0.00 60 1010.6
20260504150130 63 0 0.0 2.0 0.00 0.00 0.00 60 1010.6
20260504141331 52 0 0.0 0.0 0.00 0.00 0.00 87 1010.2
20260504141231 52 0 0.0 0.0 0.00 0.00 0.00 87 1010.2
20260504141131 52 0 0.0 0.0 0.00 0.00 0.00 87 1010.2
20260504141031 51 0 0.0 0.0 0.00 0.00 0.00 87 1010.1
20260504140731 51 0 0.0 0.0 0.00 0.00 0.00 88 1010.1
20260504140631 51 0 0.0 0.0 0.00 0.00 0.00 88 1010.1
20260504140331 51 0 0.0 0.0 0.00 0.00 0.00 87 1010.1
20260504140231 51 0 0.0 0.0 0.00 0.00 0.00 87 1010.1
20260504130732 53 0 0.0 0.0 0.00 0.00 0.00 80 1009.5
20260504130632 53 0 0.0 0.0 0.00 0.00 0.00 79 1009.5
20260504130332 53 0 0.0 0.0 0.00 0.00 0.00 78 1009.5
20260504120233 53 0 0.0 1.0 0.00 0.00 0.00 78 1009.5
20260504110234 53 0 0.0 0.0 0.00 0.00 0.00 80 1009.5
20260504110134 53 0 0.0 0.0 0.00 0.00 0.00 79 1009.5
20260504100535 55 131 0.0 2.0 0.00 0.00 0.00 75 1009.4
20260504100335 55 129 1.0 1.0 0.00 0.00 0.00 75 1009.4
20260504100235 55 118 0.0 2.0 0.00 0.00 0.00 75 1009.4
20260504100135 55 99 0.0 1.0 0.00 0.00 0.00 75 1009.4
20260504081937 56 0 1.0 2.0 0.00 0.00 0.00 77 1009.4
20260504081837 56 97 1.0 2.0 0.00 0.00 0.00 77 1009.4
20260504081737 56 139 2.0 3.0 0.00 0.00 0.00 77 1009.4
20260504081637 56 140 2.0 3.0 0.00 0.00 0.00 78 1009.4
20260504081337 56 130 1.0 3.0 0.00 0.00 0.00 79 1009.5
20260504081237 56 86 0.0 2.0 0.00 0.00 0.00 79 1009.5
20260504081137 56 61 0.0 1.0 0.00 0.00 0.00 79 1009.5
20260504081037 56 0 0.0 0.0 0.00 0.00 0.00 79 1009.5
20260504080937 57 0 0.0 0.0 0.00 0.00 0.00 79 1009.5
20260504080837 57 0 0.0 0.0 0.00 0.00 0.00 78 1009.6
20260504080737 57 0 0.0 0.0 0.00 0.00 0.00 78 1009.6
20260504080637 57 0 0.0 0.0 0.00 0.00 0.00 78 1009.6
20260504080537 57 0 0.0 0.0 0.00 0.00 0.00 79 1009.6
20260504080437 57 0 0.0 0.0 0.00 0.00 0.00 79 1009.5
20260504080137 58 0 0.0 0.0 0.00 0.00 0.00 78 1009.5
20260504070138 58 0 0.0 0.0 0.00 0.00 0.00 81 1009.5
20260504060239 61 0 0.0 0.0 0.00 0.00 0.00 76 1009.5
20260504060139 61 0 0.0 0.0 0.00 0.00 0.00 76 1009.5
20260504050740 64 0 0.0 0.0 0.00 0.00 0.00 73 1009.4
20260504050640 64 57 0.0 1.0 0.00 0.00 0.00 73 1009.4
20260504050340 64 0 0.0 0.0 0.00 0.00 0.00 73 1009.4
20260504050240 64 0 0.0 0.0 0.00 0.00 0.00 73 1009.4
20260504050140 64 0 0.0 0.0 0.00 0.00 0.00 73 1009.4
20260504045940 64 0 0.0 0.0 0.00 0.00 0.00 72 1009.4
20260504045841 64 0 0.0 0.0 0.00 0.00 0.00 72 1009.4
20260504045742 64 0 0.0 0.0 0.00 0.00 0.00 72 1009.4
20260504045241 65 0 0.0 0.0 0.00 0.00 0.00 72 1009.4
20260504045140 65 0 0.0 0.0 0.00 0.00 0.00 72 1009.4
20260504044841 65 0 0.0 0.0 0.00 0.00 0.00 71 1009.4
20260504044741 65 0 0.0 0.0 0.00 0.00 0.00 71 1009.4
20260504044641 65 0 0.0 0.0 0.00 0.00 0.00 71 1009.4
20260504044541 66 0 0.0 0.0 0.00 0.00 0.00 71 1009.4
20260504044441 66 0 0.0 0.0 0.00 0.00 0.00 71 1009.4
20260504044341 66 0 0.0 0.0 0.00 0.00 0.00 70 1009.4
20260504044241 66 0 0.0 0.0 0.00 0.00 0.00 70 1009.4
20260504044141 66 0 0.0 0.0 0.00 0.00 0.00 70 1009.4
20260504044041 66 0 0.0 0.0 0.00 0.00 0.00 70 1009.4
20260504043741 66 0 0.0 0.0 0.00 0.00 0.00 70 1009.4
20260504043641 66 0 0.0 0.0 0.00 0.00 0.00 69 1009.4
20260504043541 66 0 0.0 0.0 0.00 0.00 0.00 69 1009.3
20260504043441 66 0 0.0 0.0 0.00 0.00 0.00 69 1009.3
20260504043341 66 0 0.0 0.0 0.00 0.00 0.00 69 1009.3
20260504043241 66 0 0.0 0.0 0.00 0.00 0.00 69 1009.3
20260504043141 67 0 0.0 0.0 0.00 0.00 0.00 69 1009.3
20260504043041 67 0 0.0 0.0 0.00 0.00 0.00 69 1009.3
20260504042941 67 0 0.0 0.0 0.00 0.00 0.00 69 1009.2
20260504042841 67 0 0.0 0.0 0.00 0.00 0.00 68 1009.2
20260504042741 67 0 0.0 0.0 0.00 0.00 0.00 68 1009.2
20260504042641 67 0 0.0 0.0 0.00 0.00 0.00 68 1009.2
20260504042541 67 0 0.0 0.0 0.00 0.00 0.00 68 1009.2
20260504042441 67 0 0.0 0.0 0.00 0.00 0.00 68 1009.2
20260504042341 67 0 0.0 0.0 0.00 0.00 0.00 68 1009.2
20260504042041 68 0 0.0 0.0 0.00 0.00 0.00 67 1009.2
20260504041941 68 0 0.0 0.0 0.00 0.00 0.00 67 1009.1
20260504041841 68 0 0.0 0.0 0.00 0.00 0.00 67 1009.2
20260504041541 68 0 0.0 0.0 0.00 0.00 0.00 66 1009.2
20260504041441 68 0 0.0 0.0 0.00 0.00 0.00 66 1009.1
20260504041341 68 0 0.0 0.0 0.00 0.00 0.00 65 1009.1
20260504041241 69 0 0.0 0.0 0.00 0.00 0.00 65 1009.1
20260504041141 69 0 0.0 0.0 0.00 0.00 0.00 65 1009.1
20260504041041 69 0 0.0 0.0 0.00 0.00 0.00 65 1009.1
20260504040741 69 0 0.0 0.0 0.00 0.00 0.00 64 1009.1
20260504040641 69 0 0.0 0.0 0.00 0.00 0.00 64 1009.1
20260504040141 70 0 0.0 0.0 0.00 0.00 0.00 62 1009.1
20260504035641 71 0 0.0 0.0 0.00 0.00 0.00 62 1009.1
20260504035541 71 0 0.0 0.0 0.00 0.00 0.00 62 1009.1
20260504035441 71 0 0.0 0.0 0.00 0.00 0.00 61 1009.1
20260504034742 72 0 0.0 0.0 0.00 0.00 0.00 58 1009.0
20260504034642 72 0 0.0 0.0 0.00 0.00 0.00 58 1009.0
20260504034342 73 0 0.0 0.0 0.00 0.00 0.00 57 1009.0
20260504034242 73 0 0.0 0.0 0.00 0.00 0.00 56 1009.0
20260504034142 73 0 0.0 0.0 0.00 0.00 0.00 56 1008.9
20260504034042 73 0 0.0 0.0 0.00 0.00 0.00 55 1008.9
20260504033942 73 0 0.0 0.0 0.00 0.00 0.00 54 1008.9
20260504033842 74 0 0.0 0.0 0.00 0.00 0.00 54 1008.9
20260504033742 74 0 0.0 0.0 0.00 0.00 0.00 54 1008.9
20260504033442 74 340 0.0 1.0 0.00 0.00 0.00 53 1008.9
20260504033342 74 0 0.0 0.0 0.00 0.00 0.00 53 1008.9
20260504033243 74 0 0.0 0.0 0.00 0.00 0.00 54 1008.9
20260504033142 74 0 0.0 0.0 0.00 0.00 0.00 54 1008.9
20260504033042 74 0 0.0 0.0 0.00 0.00 0.00 53 1008.9
20260504032942 74 0 0.0 0.0 0.00 0.00 0.00 53 1008.9
20260504032842 74 0 0.0 0.0 0.00 0.00 0.00 53 1008.9
20260504032742 75 0 0.0 0.0 0.00 0.00 0.00 53 1008.9
20260504032642 75 0 0.0 0.0 0.00 0.00 0.00 53 1008.9
20260504032542 75 0 0.0 0.0 0.00 0.00 0.00 53 1008.9
20260504032442 75 0 0.0 1.0 0.00 0.00 0.00 52 1008.9
20260504032342 75 0 0.0 1.0 0.00 0.00 0.00 52 1008.9
20260504032242 75 0 0.0 0.0 0.00 0.00 0.00 51 1008.9
20260504032142 75 0 0.0 1.0 0.00 0.00 0.00 51 1008.8
20260504032042 75 0 0.0 0.0 0.00 0.00 0.00 51 1008.8
20260504031742 76 0 0.0 0.0 0.00 0.00 0.00 51 1008.8
20260504031642 76 319 0.0 3.0 0.00 0.00 0.00 51 1008.8
20260504031542 76 278 0.0 2.0 0.00 0.00 0.00 50 1008.8
20260504031442 76 287 0.0 2.0 0.00 0.00 0.00 50 1008.8
20260504031342 76 43 0.0 0.0 0.00 0.00 0.00 51 1008.8
20260504031242 76 312 0.0 1.0 0.00 0.00 0.00 50 1008.8
20260504031142 76 260 0.0 1.0 0.00 0.00 0.00 50 1008.8
20260504031042 76 342 0.0 2.0 0.00 0.00 0.00 50 1008.8
20260504030942 76 249 1.0 2.0 0.00 0.00 0.00 50 1008.8
20260504030842 76 294 1.0 2.0 0.00 0.00 0.00 50 1008.8
20260504030742 76 279 0.0 2.0 0.00 0.00 0.00 50 1008.8
20260504030642 76 259 0.0 0.0 0.00 0.00 0.00 50 1008.7
20260504030542 77 7 0.0 1.0 0.00 0.00 0.00 50 1008.7
20260504030442 77 332 0.0 1.0 0.00 0.00 0.00 49 1008.7
20260504030342 77 305 0.0 1.0 0.00 0.00 0.00 49 1008.7
20260504030242 77 0 0.0 1.0 0.00 0.00 0.00 49 1008.7
20260504030143 77 0 0.0 0.0 0.00 0.00 0.00 49 1008.7
20260504030042 77 0 0.0 1.0 0.00 0.00 0.00 49 1008.7
20260504025942 77 331 1.0 3.0 0.00 0.01 0.00 49 1008.7
20260504025843 77 0 0.0 2.0 0.00 0.01 0.00 49 1008.7
20260504025543 77 280 1.0 2.0 0.00 0.01 0.00 48 1008.7
20260504025243 78 323 0.0 2.0 0.00 0.01 0.00 48 1008.7
20260504025143 78 52 0.0 1.0 0.00 0.01 0.00 48 1008.7
20260504025043 78 247 0.0 2.0 0.00 0.01 0.00 47 1008.6
20260504024943 78 270 0.0 1.0 0.00 0.01 0.00 47 1008.6
20260504024843 78 0 0.0 0.0 0.00 0.01 0.00 47 1008.6
20260504024743 78 80 0.0 1.0 0.00 0.01 0.00 47 1008.6
20260504024443 79 0 0.0 0.0 0.00 0.01 0.00 47 1008.6
20260504024343 79 290 0.0 1.0 0.00 0.01 0.00 46 1008.6
20260504024243 79 257 0.0 2.0 0.00 0.01 0.00 46 1008.6
20260504024143 79 18 0.0 2.0 0.00 0.01 0.00 46 1008.6
20260504024043 79 0 0.0 2.0 0.00 0.01 0.00 46 1008.6
20260504023943 79 281 1.0 2.0 0.00 0.01 0.00 46 1008.6
20260504023643 79 0 0.0 0.0 0.00 0.01 0.00 45 1008.6
20260504023543 80 0 1.0 2.0 0.00 0.01 0.00 45 1008.6
20260504023443 80 282 0.0 2.0 0.00 0.01 0.00 45 1008.6
20260504023343 80 312 0.0 0.0 0.00 0.01 0.00 44 1008.6
20260504023243 80 282 0.0 1.0 0.00 0.01 0.00 44 1008.6
20260504023143 80 213 0.0 1.0 0.00 0.01 0.00 44 1008.6
20260504023043 80 127 0.0 1.0 0.00 0.01 0.00 44 1008.6
20260504022943 80 352 1.0 3.0 0.00 0.01 0.00 43 1008.5
20260504022843 80 290 0.0 1.0 0.00 0.01 0.00 43 1008.5
20260504022743 80 314 0.0 1.0 0.00 0.01 0.00 43 1008.5